Regional Weather Roundup
Issued by NWS Jackson, KY

Home | Current Version | Previous Version | Text Only | Print | Product List | Glossary Off
Versions: 1 2 3 4 5 6 7 8 9 10 11 12 13 14 15 16 17 18 19 20 21 22 23 24 25 26 27 28 29 30 31 32 33 34 35 36 37 38 39 40 41 42 43 44 45 46 47 48 49 50

000
ASUS43 KJKL 020210
RWRJKL

EAST KENTUCKY HOURLY WEATHER ROUNDUP
NATIONAL WEATHER SERVICE JACKSON KY
1000 PM EDT MON JUN 01 2015

NOTE: "FAIR" INDICATES FEW OR NO CLOUDS BELOW 12,000 FEET WITH
NO SIGNIFICANT WEATHER AND/OR OBSTRUCTIONS TO VISIBILITY.

* THESE REPORTS ARE NOT UNDER NWS QUALITY CONTROL AND MAY NOT
  REPORT WEATHER SUCH AS PRECIPITATION AND FOG.

KYZ079-080-083-085-087-088-110-112-115-119-120-020300
...EASTERN KENTUCKY...

CITY           SKY/WX    TMP DP  RH WIND       PRES   REMARKS
JACKSON        CLOUDY    56  55  97 CALM      30.10R FOG
LONDON         CLOUDY    60  55  83 NE7       30.08R
SOMERSET*      CLOUDY    55  55 100 N6        30.10S
MONTICELLO*    CLOUDY    62  61  97 N9        30.10S
MIDDLESBORO*   CLOUDY    65  65 100 CALM      30.07S
HARLAN APT*    CLOUDY    64  63  94 NW5       30.07R
HAZARD APT*    FOG       57  57 100 CALM      30.10R VSB 1
BLACK MTN*       N/A     57  57 100 N2          N/A
PIKEVILLE APT* FOG       55  55 100 N6        30.08S VSB 1/4
BIG SANDY*     CLOUDY    56  56 100 N3        30.09R FOG
MOREHEAD APT*  CLOUDY    54  52  94 N6        30.14R
$$

KYZ035-036-041-042-044-050-067-078-099-020300
...CENTRAL KENTUCKY...

CITY           SKY/WX    TMP DP  RH WIND       PRES   REMARKS
MT STERLING*   CLOUDY    54  54 100 NE5       30.13R
FLEMING/MASON* CLOUDY    54  52  94 NE8       30.15R
DANVILLE*      CLOUDY    55  54  94 N6        30.12R
RICHMOND*      CLOUDY    55  54  94 N6        30.10S
LEXINGTON      CLOUDY    55  52  89 N9        30.11S
FRANKFORT      CLOUDY    56  51  84 VRB7      30.11R
$$

KYZ091>093-OHZ055-061-077-WVZ005-015-034-035-042-020300
...SOUTHERN OHIO/WEST VIRGINIA...

CITY           SKY/WX    TMP DP  RH WIND       PRES   REMARKS
COVINGTON      CLOUDY    57  51  80 NE10      30.14R
COLUMBUS       CLOUDY    54  49  83 N8        30.15R
DAYTON         CLOUDY    54  49  83 NE9       30.17S
WILMINGTON     CLOUDY    53  48  83 N10       30.14S
HUNTINGTON     CLOUDY    55  54  96 N6        30.09F FOG
CHARLESTON     LGT RAIN  58  56  93 NW7       30.08R
PINEVILLE*     CLOUDY    65  65 100 MISG      30.12R
BECKLEY        CLOUDY    62  60  93 CALM      30.08S
BLUEFIELD      CLOUDY    64  60  87 W5        30.10S
$$

VAZ002-007-008-TNZ017-027-036-066-071-020300
...SOUTHWEST VIRGINIA/EAST TENNESSEE...

CITY           SKY/WX    TMP DP  RH WIND       PRES   REMARKS
WISE*          MOCLDY    63  63 100 CALM      30.10S
JONESVILLE*    PTCLDY    64  64 100 CALM      30.08R
ABINGDON*      MOCLDY    64  64  98 CALM      30.08R
BRISTOL        MOCLDY    64  63  96 CALM      30.06S
KNOXVILLE      CLOUDY    69  57  65 CALM      30.03R
OAK RIDGE      CLOUDY    68  66  93 CALM      30.04S
CROSSVILLE     CLOUDY    67  62  84 N6        30.08R
NASHVILLE      CLOUDY    64  62  93 N5        30.08R
$$

...KEY TO REMARKS...
VSB - VISIBILITY IN MILES
WCI - WIND CHILL INDEX
HX  - HEAT INDEX

$$



USA.gov is the U.S. government's official web portal to all federal, state and local government web resources and services.